Location: T�bingen+AIT
(48.5342°N, 9.0700°E)
Time: 10:52:15
(UTC+02:00)

Daily predictions for brighter satellites

Satellite Brightness Start Highest point End
(mag) Time Altitude Azimuth Time Altitude Azimuth Time Altitude Azimuth
Unknown 4.0 18:59:47 10° SW 19:03:47 50° SE 19:07:48 10° ENE
Unknown 3.9 19:00:02 10° SW 19:04:03 54° SE 19:08:07 10° ENE
COBE Rocket 4.3 18:59:30 10° NNE 19:04:32 48° E 19:09:28 10° S
Unknown 3.9 19:01:37 10° SW 19:05:39 54° SE 19:09:43 10° ENE
BREEZE-M DEB (TANK) 3.4 19:02:11 10° WNW 19:06:11 76° NNE 19:15:14 10° E
Unknown 3.9 19:04:40 10° SW 19:08:41 52° SE 19:12:43 10° ENE
Cosmos 1606 Rocket 3.9 19:06:40 10° SSE 19:10:49 43° E 19:14:58 10° NNE
Unknown 3.9 19:07:58 10° SW 19:12:01 55° SE 19:16:05 10° ENE
Meteor 2-12 Rocket 4.5 19:07:07 10° N 19:13:16 69° ENE 19:19:24 10° SSE
Unknown 3.0 19:11:03 10° WNW 19:13:36 44° NNE 19:16:06 11° E
Unknown 3.9 19:09:41 10° SW 19:13:45 56° SSE 19:17:49 10° ENE
Unknown 3.8 19:11:16 10° SW 19:15:20 57° SSE 19:19:25 10° ENE
Cosmos 2263 Rocket 3.4 19:10:08 10° SW 19:15:32 44° NW 19:20:57 10° NNE
Cosmos 2285 Rocket 4.0 19:09:24 10° NNW 19:15:54 80° ENE 19:22:19 10° SSE
CSL-04 Rocket 3.9 19:11:25 10° SE 19:16:46 52° ENE 19:22:06 10° N
Unknown 3.8 19:12:59 10° SW 19:17:03 59° SSE 19:21:08 10° ENE
Cosmos 1758 Rocket 3.6 19:12:45 10° N 19:17:13 82° E 19:21:41 10° SSE
SMAP 4.4 19:14:26 10° S 19:18:54 45° W 19:23:23 10° NNW
Unknown 3.6 19:16:56 10° SW 19:20:59 68° SSE 19:25:00 10° ENE
SL-4 R/B 2.3 19:17:58 10° WNW 19:21:51 59° SSW 19:25:26 10° SE
Envisat 3.0 19:17:42 10° SSE 19:22:47 86° ENE 19:27:54 10° NNW
Unknown 3.7 19:19:33 10° SW 19:23:38 65° SSE 19:27:34 11° ENE
Gbstr 26 Del rocket 4.2 19:17:58 10° WNW 19:23:44 66° N 19:30:22 12° E
Cosmos 1932 4.5 19:18:11 10° SSW 19:24:23 71° SE 19:30:48 10° NE
Cosmos 1271 Rocket 2.7 19:20:32 10° N 19:24:29 69° ENE 19:28:27 10° SSE
CZ-2D R/B 4.1 19:21:50 10° SE 19:25:11 29° ENE 19:28:33 10° N
Unknown 3.7 19:21:12 10° SW 19:25:19 66° SSE 19:29:09 12° ENE
NOAA 12 4.5 19:20:59 10° S 19:26:14 70° WSW 19:31:33 10° NNW
Unknown 3.7 19:22:53 10° SW 19:26:59 68° SSE 19:30:47 12° ENE
Unknown 3.6 19:24:29 10° SW 19:28:36 70° SSE 19:32:19 12° ENE
EO 1 Delta rocket 4.2 19:24:33 10° SE 19:28:54 42° ENE 19:33:26 10° N
Cosmos 1833 Rocket 3.7 19:24:58 10° NNW 19:29:46 28° NE 19:33:53 13° E
Unknown 3.6 19:26:09 10° SW 19:30:17 71° SSE 19:33:56 13° ENE
SKYMED 2 3.5 19:27:22 10° NNE 19:31:43 66° ESE 19:36:02 10° S
Cosmos 1626 3.6 19:29:00 10° NNW 19:32:32 41° W 19:36:02 10° SSW
Unknown 3.5 19:28:36 10° WSW 19:32:39 89° NW 19:36:13 13° ENE
Unknown 3.6 19:29:32 10° SW 19:33:39 74° SSE 19:37:12 14° ENE
Starlink (trailer) 3.6 19:31:10 10° SW 19:35:18 76° SSE 19:38:46 14° ENE
Unknown 3.6 19:32:49 10° WSW 19:36:58 78° SSE 19:40:22 15° ENE
Cosmos 1356 4.2 19:34:45 10° SSE 19:37:47 30° E 19:40:51 10° NNE
YAOGAN 1 2.5 19:34:16 10° SSE 19:38:35 72° ENE 19:42:54 10° N
Unknown 3.6 19:34:26 10° WSW 19:38:35 79° SSE 19:41:56 15° ENE
Cosmos 1953 2.4 19:35:10 10° SSW 19:39:13 82° W 19:43:19 10° N
Cosmos 1703 3.6 19:36:15 10° N 19:40:02 42° ENE 19:43:46 10° SSE
Cosmos 1726 2.5 19:37:43 10° SSE 19:41:08 38° E 19:44:34 10° NNE
Cosmos 1461 4.2 19:40:36 10° NNW 19:43:53 23° NE 19:45:38 18° ENE
CZ-4C R/B 3.7 19:37:12 10° NW 19:44:13 55° WSW 19:52:08 10° SSE
FALCON 9 DEB 4.1 19:41:05 10° WNW 19:44:20 37° N 19:46:30 18° ENE
Unknown 3.6 19:41:03 10° WSW 19:45:12 86° SSE 19:48:18 17° ENE
Unknown 3.6 19:41:05 10° WSW 19:45:15 86° SSE 19:48:20 17° ENE
COSMOS 2406 3.3 19:40:13 10° NNW 19:45:58 62° ENE 19:51:39 10° SE
Unknown 3.6 19:41:53 10° WSW 19:46:02 86° SSE 19:49:05 18° ENE
Unknown 4.1 19:43:38 10° WNW 19:46:57 38° N 19:49:05 19° ENE
Cosmos 2082 Rocket 3.2 19:42:27 10° NNW 19:47:18 27° NE 19:50:13 18° E
Cosmos 1354 Rocket 4.5 19:44:03 10° NNW 19:49:14 64° WSW 19:54:24 10° S
Unknown 3.6 19:45:58 10° WSW 19:50:06 90° NNW 19:53:00 19° ENE
Unknown 3.6 19:46:05 10° WSW 19:50:13 89° WNW 19:53:08 19° ENE
Unknown 3.6 19:47:51 10° WSW 19:52:00 86° NNW 19:54:50 20° ENE
IRS-1A Rocket 4.5 19:46:48 10° SE 19:52:02 47° ENE 19:57:18 10° N
ASTEX 1 3.4 19:47:26 10° N 19:52:24 88° W 19:57:23 10° S
Cosmos 1726 Rocket 3.6 19:48:39 10° S 19:53:03 87° W 19:57:28 10° N
Unknown 3.6 19:51:09 10° WSW 19:55:19 83° NNW 19:58:01 21° ENE
Unknown 3.6 19:51:43 10° WSW 19:55:52 84° NNW 19:58:32 22° ENE
Meteor 1-11 4.3 19:50:53 10° N 19:56:36 63° ENE 20:02:20 10° SSE
Unknown 4.0 19:53:30 10° WNW 19:56:44 38° N 19:58:15 24° ENE
Unknown 3.6 19:52:45 10° WSW 19:56:54 84° NNW 19:59:32 22° ENE
CSL-04 Debris 4.3 19:51:30 10° SSE 19:56:56 78° WSW 20:02:27 10° NNW
Cosmos 1242 Rocket 2.5 19:53:57 10° N 19:57:40 86° E 20:01:21 10° SSE
Unknown 3.6 19:55:58 10° WSW 20:00:07 83° NNW 20:02:37 23° ENE
Shenzhou-11 Module 3.4 19:58:24 10° SW 20:00:36 21° S 20:00:58 21° SSE
Unknown 3.2 19:59:11 10° WNW 20:02:14 53° NNE 20:03:09 37° ENE
Cosmos 2058 Rocket 2.9 19:58:36 10° S 20:02:57 80° E 20:07:20 10° NNE
Unknown 3.6 19:59:23 10° WSW 20:03:32 78° NNW 20:05:54 25° ENE
Cosmos 1939 Rocket 2.7 20:00:00 10° SSE 20:03:55 68° ENE 20:07:56 10° N
Unknown 3.7 20:01:03 10° WSW 20:05:12 77° NNW 20:07:29 26° ENE
Ariane Rocket 3.0 20:00:20 10° SSE 20:05:22 65° ENE 20:10:27 10° N
Cosmos 2228 3.6 20:02:02 10° SSW 20:06:22 60° WNW 20:10:42 10° N
Falcon 9 debris 4.0 20:03:15 10° WNW 20:06:32 39° N 20:07:41 29° NE
Unknown 3.7 20:02:44 10° WSW 20:06:53 75° NNW 20:09:07 26° ENE
Cosmos 1605 Rocket 3.9 20:01:54 10° N 20:08:09 72° E 20:14:16 10° SSE
Unknown 3.7 20:04:24 10° WSW 20:08:33 74° NNW 20:10:42 27° ENE
Lacrosse 5 rocket 2.5 20:06:12 10° WNW 20:09:42 36° SW 20:13:02 12° SSE
ATLAS CENTAUR R/B 4.1 20:08:59 10° NNW 20:10:14 11° N 20:11:29 10° NNE
Unknown 4.2 20:06:41 10° WNW 20:10:15 42° N 20:11:49 27° NE
Unknown 4.0 20:07:19 10° WNW 20:10:40 39° N 20:11:44 30° NE
SPOT 3 Rocket 4.3 20:09:12 27° E 20:10:47 32° ENE 20:15:22 10° N
Unknown 3.7 20:07:42 10° WSW 20:11:51 72° NNW 20:13:52 29° ENE
Unknown 4.1 20:08:19 10° W 20:12:06 49° NNW 20:13:52 27° NE
Unknown 4.2 20:09:26 10° W 20:13:08 45° N 20:14:45 28° NE
USA 234 4.5 20:13:46 19° SE 20:13:46 19° SE 20:17:49 10° SSE
Unknown 3.8 20:09:29 10° WSW 20:13:37 70° NNW 20:15:34 30° ENE
Cosmos 1844 Rocket 3.2 20:08:18 10° SW 20:13:54 63° WNW 20:19:31 10° NNE
Meteor 1-16 Rocket 4.3 20:09:14 10° SSW 20:14:49 79° WNW 20:20:17 10° N
Unknown 3.8 20:11:05 10° WSW 20:15:13 70° NNW 20:17:06 31° NE
Meteor 2-10 3.8 20:10:37 10° S 20:15:43 85° E 20:20:48 10° NNE
Cosmos 1727 Rocket 4.1 20:10:16 10° SSE 20:16:08 47° E 20:22:01 10° NNE
Unknown 3.8 20:12:41 10° WSW 20:16:49 69° NNW 20:18:38 32° NE
Unknown 3.8 20:13:16 10° WSW 20:17:24 68° NNW 20:19:12 32° NE
Cosmos 921 Rocket 3.3 20:13:37 10° SSW 20:18:07 74° WNW 20:22:37 10° NNE
COSMO-SKYMED 1 3.9 20:15:40 10° N 20:19:46 42° WNW 20:23:51 10° SW
Unknown 3.8 20:15:52 10° WSW 20:20:00 69° NNW 20:21:40 34° NE
Resurs 01 Rocket 3.6 20:21:44 14° NE 20:21:44 14° NE 20:23:02 10° NNE
Cosmos 1908 3.1 20:16:50 10° S 20:20:44 78° E 20:24:38 10° NNE
Cosmos 1328 4.4 20:18:39 10° NNW 20:22:35 56° W 20:26:28 10° S
CZ-4 R/B 3.4 20:19:20 10° SSW 20:23:03 31° W 20:26:49 10° NNW
Unknown 3.8 20:19:14 10° WSW 20:23:22 67° NNW 20:24:54 36° NE
Cosmos 1777 Rocket 3.9 20:18:37 10° NNW 20:23:53 84° ENE 20:27:47 18° SSE
Unknown 3.8 20:20:51 10° WSW 20:24:59 66° NNW 20:26:27 37° NE
Unknown 3.9 20:22:48 10° W 20:26:55 62° NNW 20:28:20 38° NE
Unknown 3.9 20:24:11 10° WSW 20:28:19 64° NNW 20:29:38 40° NE
H-2A R/B 2.6 20:28:31 36° E 20:29:20 39° ENE 20:34:18 10° N
Cosmos 839 Rocket 4.4 20:23:20 10° NW 20:29:29 68° WSW 20:36:19 10° SSE
Cosmos 2084 4.1 20:25:10 10° WSW 20:29:38 58° NW 20:32:38 20° NNE
Cosmos 2278 Rocket 2.3 20:24:28 10° S 20:29:55 50° ESE 20:34:57 12° NE
Unknown 3.9 20:25:54 10° W 20:30:00 63° NNW 20:31:16 41° NE
Cosmos 2173 Rocket 4.3 20:24:03 10° N 20:30:02 43° ENE 20:31:56 34° ESE
Unknown 3.9 20:29:13 10° W 20:33:19 61° NNW 20:34:27 43° NE
Cosmos 1844 4.3 20:27:54 10° SW 20:33:32 57° WNW 20:39:15 10° NNE
SJ 16-02 3.4 20:31:14 10° NNE 20:32:32 14° NNE 20:32:32 14° NNE
HJ-1C 3.5 20:33:06 44° S 20:34:02 76° WSW 20:37:25 10° NNW
Lacrosse 5 2.2 20:29:48 10° NW 20:34:45 51° NNE 20:35:56 42° ENE
Unknown 3.9 20:30:56 10° W 20:35:02 60° NNW 20:36:05 44° NE
Unknown 4.0 20:32:35 10° W 20:36:42 60° NNW 20:37:41 45° NE
Unknown 4.0 20:34:17 10° W 20:38:23 59° NNW 20:39:18 46° NNE
Unknown 4.0 20:37:37 10° W 20:41:42 57° NNW 20:42:28 48° NNE
Unknown 4.0 20:39:18 10° W 20:43:23 56° NNW 20:44:05 48° NNE
Unknown 4.1 20:39:37 10° W 20:43:42 54° NNW 20:44:24 47° NNE
Cosmos 292 Rocket 3.9 20:39:52 10° SSW 20:44:35 71° WNW 20:49:22 10° NNE
ATLAS 5 CENTAUR R/B 3.2 20:40:50 10° W 20:44:51 33° NNW 20:48:44 13° NNE
Unknown 4.1 20:41:13 10° W 20:45:18 54° NNW 20:45:56 48° NNE
CZ-2C R/B 3.9 20:45:55 38° ENE 20:45:55 38° ENE 20:51:09 10° N
Cosmos 2100 Rocket 3.9 20:41:30 10° N 20:47:39 61° ENE 20:49:41 41° SE
Unknown 4.0 20:44:14 10° W 20:48:18 55° NNW 20:48:47 51° NNE
Unknown 4.0 20:47:36 10° W 20:51:40 53° NNW 20:52:00 52° N
Cosmos 967 Rocket 4.5 20:45:33 10° NW 20:52:00 67° NE 20:53:41 49° ESE
Cosmos 2058 3.9 20:48:44 10° N 20:51:28 36° NNE 20:51:28 36° NNE
Unknown 4.1 20:49:20 10° W 20:53:25 53° NNW 20:53:41 52° N
Unknown 4.1 20:50:57 10° W 20:55:00 52° NNW 20:55:12 52° N
Unknown 4.1 20:52:40 10° W 20:56:44 52° NNW 20:56:51 52° N
Unknown 4.3 20:56:35 10° W 21:00:29 48° NNW 21:00:29 48° NNW
SL-4 R/B 4.4 20:59:10 10° WSW 21:00:43 12° SW 21:01:45 11° SSW
Unknown 4.3 20:59:20 10° W 21:03:13 50° NNW 21:03:13 50° NNW
Unknown 4.3 21:01:01 10° W 21:04:49 49° NNW 21:04:49 49° NNW
Cosmos 1898 Rocket 4.2 21:00:06 10° NNW 21:04:08 39° NNE 21:04:08 39° NNE
Cosmos 1812 Rocket 3.8 21:07:07 66° NNW 21:07:07 66° NNW 21:11:04 10° N
Unknown 4.4 21:02:42 10° W 21:06:26 48° NNW 21:06:26 48° NNW
Unknown 4.4 21:04:20 10° W 21:07:58 47° NNW 21:07:58 47° NNW
Unknown 4.5 21:06:01 10° W 21:09:35 46° NNW 21:09:35 46° NNW
Gbstr 26 Del rocket 4.1 21:04:57 10° WNW 21:11:22 84° SSW 21:12:54 59° SE
Cosmos 2016 Rocket 4.0 21:07:08 10° N 21:13:08 61° ENE 21:13:08 61° ENE
Cosmos 1833 Rocket 3.0 21:08:34 10° NNW 21:14:08 63° WSW 21:15:37 46° S
ARGOS 3.0 21:15:47 83° ENE 21:15:47 83° ENE 21:21:13 10° NNW
SJ-6B 4.4 21:19:40 31° NNW 21:19:40 31° NNW 21:21:48 10° NNW
Cosmos 2061 Rocket 3.8 21:13:41 10° N 21:19:54 72° ENE 21:19:54 72° ENE
Cosmos 1461 4.1 21:19:16 10° NW 21:22:03 40° WNW 21:22:03 40° WNW
ADEOS Rocket 3.4 21:19:51 10° NNE 21:27:43 82° ESE 21:35:05 10° SSW
Cosmos 2082 Rocket 2.4 21:26:12 10° NNW 21:31:53 66° WSW 21:32:05 65° SW
ATLAS CENTAUR R/B 4.2 21:48:18 10° NNW 21:49:26 13° N 21:49:26 13° N
USA 238 DEB 4.0 21:48:08 10° SW 21:53:10 55° SW 21:53:10 55° SW
USA 238 4.1 21:48:15 10° SW 21:53:11 53° SW 21:53:11 53° SW
Resurs 01 Rocket 3.9 21:59:19 20° NNW 21:59:19 20° NNW 22:00:43 10° NNW
H-2A R/B 3.5 22:09:09 34° W 22:09:09 34° W 22:13:41 10° NNW
SJ 16-02 4.0 22:08:42 10° NNW 22:09:32 15° NNW 22:09:32 15° NNW
Cosmos 2278 Rocket 3.7 22:09:08 10° WSW 22:14:14 33° NW 22:16:57 22° N
Lacrosse 5 3.9 22:12:54 10° WNW 22:15:08 25° WNW 22:15:08 25° WNW
ATLAS 5 CENTAUR R/B 4.4 22:28:00 10° NW 22:30:17 16° NNW 22:30:17 16° NNW
